SHT2K EGLL-EGCC

Flight info

Callsign SHT2K
Flight time 0h 33m
Altitude 18000
Route ULTIB T420 ELVOS
Aircraft A319/M-SDE3FGHIRWY/LB1

Departure

Time 2026-05-05 20:13
Airport London Heathrow Airport (EGLL)

Arrival

Time 2026-05-05 20:46
Airport Manchester Airport (EGCC)
Time Latitude Longitude Altitude Speed Heading
2026-05-05 19:36 51.47399 -0.48589 86 ft 0 kts 270°
2026-05-05 20:02 51.47400 -0.48566 88 ft 4 kts 270°
2026-05-05 20:02 51.47400 -0.48529 86 ft 2 kts 270°
2026-05-05 20:02 51.47403 -0.48492 87 ft 4 kts 232°
2026-05-05 20:02 51.47422 -0.48475 90 ft 3 kts 179°
2026-05-05 20:03 51.47437 -0.48475 87 ft 0 kts 179°
2026-05-05 20:06 51.47434 -0.48475 87 ft 2 kts 179°
2026-05-05 20:06 51.47422 -0.48475 90 ft 4 kts 179°
2026-05-05 20:06 51.47404 -0.48474 88 ft 1 kts 179°
2026-05-05 20:06 51.47394 -0.48474 90 ft 2 kts 179°
2026-05-05 20:07 51.47355 -0.48474 86 ft 6 kts 180°
2026-05-05 20:07 51.47326 -0.48474 86 ft 7 kts 180°
2026-05-05 20:07 51.47271 -0.48473 86 ft 9 kts 179°
2026-05-05 20:07 51.47205 -0.48472 87 ft 11 kts 179°
2026-05-05 20:08 51.47123 -0.48471 88 ft 13 kts 180°
2026-05-05 20:08 51.47027 -0.48471 86 ft 15 kts 179°
2026-05-05 20:08 51.46919 -0.48469 87 ft 15 kts 179°
2026-05-05 20:08 51.46819 -0.48469 86 ft 15 kts 180°
2026-05-05 20:09 51.46710 -0.48468 86 ft 14 kts 180°
2026-05-05 20:09 51.46652 -0.48559 86 ft 14 kts 267°
2026-05-05 20:09 51.46646 -0.48719 86 ft 13 kts 249°
2026-05-05 20:09 51.46600 -0.48767 90 ft 6 kts 199°
2026-05-05 20:10 51.46549 -0.48789 87 ft 9 kts 186°
2026-05-05 20:10 51.46490 -0.48743 86 ft 11 kts 128°
2026-05-05 20:10 51.46479 -0.48612 86 ft 13 kts 90°
2026-05-05 20:10 51.46479 -0.48475 86 ft 13 kts 90°
2026-05-05 20:11 51.46479 -0.48317 88 ft 15 kts 90°
2026-05-05 20:11 51.46480 -0.48144 88 ft 16 kts 90°
2026-05-05 20:11 51.46479 -0.48078 87 ft 0 kts 90°
2026-05-05 20:12 51.46479 -0.47928 87 ft 40 kts 90°
2026-05-05 20:12 51.46484 -0.47139 87 ft 100 kts 90°
2026-05-05 20:12 51.46490 -0.45755 86 ft 151 kts 89°
2026-05-05 20:13 51.46498 -0.43928 443 ft 167 kts 87°
2026-05-05 20:13 51.46539 -0.42077 1212 ft 166 kts 82°
2026-05-05 20:13 51.46969 -0.40318 1695 ft 181 kts 54°
2026-05-05 20:13 51.47822 -0.38657 2007 ft 206 kts 51°
2026-05-05 20:14 51.48782 -0.36774 2464 ft 231 kts 51°
2026-05-05 20:14 51.49837 -0.34683 3146 ft 247 kts 51°
2026-05-05 20:14 51.50928 -0.32512 4136 ft 252 kts 50°
2026-05-05 20:14 51.52032 -0.30280 5141 ft 257 kts 53°
2026-05-05 20:15 51.52812 -0.27654 6073 ft 265 kts 70°
2026-05-05 20:15 51.53598 -0.24972 6952 ft 269 kts 51°
2026-05-05 20:15 51.55021 -0.23044 7807 ft 271 kts 25°
2026-05-05 20:15 51.56852 -0.22360 8693 ft 273 kts 358°
2026-05-05 20:16 51.58718 -0.22984 9654 ft 277 kts 343°
2026-05-05 20:16 51.60612 -0.23738 10344 ft 288 kts 345°
2026-05-05 20:16 51.62584 -0.24814 10661 ft 309 kts 335°
2026-05-05 20:16 51.64503 -0.26477 11278 ft 317 kts 330°
2026-05-05 20:17 51.66434 -0.28272 12000 ft 323 kts 329°
2026-05-05 20:17 51.68377 -0.30127 12751 ft 327 kts 328°
2026-05-05 20:17 51.70337 -0.32022 13497 ft 331 kts 328°
2026-05-05 20:17 51.72323 -0.33949 14206 ft 335 kts 328°
2026-05-05 20:18 51.74335 -0.35900 14854 ft 339 kts 328°
2026-05-05 20:18 51.76367 -0.37874 15496 ft 343 kts 328°
2026-05-05 20:18 51.78423 -0.39872 16046 ft 347 kts 328°
2026-05-05 20:18 51.80479 -0.41868 16684 ft 351 kts 328°
2026-05-05 20:19 51.82614 -0.43937 17332 ft 355 kts 327°
2026-05-05 20:19 51.84753 -0.46010 17841 ft 361 kts 327°
2026-05-05 20:19 51.86883 -0.48076 17957 ft 362 kts 328°
2026-05-05 20:19 51.89067 -0.50195 17975 ft 362 kts 328°
2026-05-05 20:20 51.91223 -0.52294 17977 ft 362 kts 328°
2026-05-05 20:20 51.93351 -0.54370 17975 ft 362 kts 328°
2026-05-05 20:20 51.95503 -0.56466 17975 ft 362 kts 328°
2026-05-05 20:20 51.97657 -0.58564 17975 ft 362 kts 327°
2026-05-05 20:21 51.99815 -0.60669 17974 ft 361 kts 327°
2026-05-05 20:21 52.01969 -0.62776 17977 ft 361 kts 328°
2026-05-05 20:21 52.04121 -0.64886 17980 ft 361 kts 327°
2026-05-05 20:21 52.06272 -0.67000 17985 ft 362 kts 327°
2026-05-05 20:22 52.08426 -0.69122 17979 ft 362 kts 327°
2026-05-05 20:22 52.10578 -0.71243 17985 ft 362 kts 327°
2026-05-05 20:22 52.12737 -0.73370 17985 ft 362 kts 327°
2026-05-05 20:22 52.14897 -0.75498 17986 ft 363 kts 327°
2026-05-05 20:23 52.17052 -0.77623 17988 ft 363 kts 327°
2026-05-05 20:23 52.19209 -0.79755 17997 ft 363 kts 327°
2026-05-05 20:23 52.21368 -0.81892 17998 ft 363 kts 326°
2026-05-05 20:23 52.23524 -0.84026 17999 ft 363 kts 327°
2026-05-05 20:24 52.25683 -0.86165 18004 ft 363 kts 327°
2026-05-05 20:24 52.27840 -0.88305 18004 ft 363 kts 327°
2026-05-05 20:24 52.29997 -0.90449 18015 ft 363 kts 326°
2026-05-05 20:24 52.32149 -0.92593 18016 ft 362 kts 326°
2026-05-05 20:25 52.34272 -0.94714 18024 ft 362 kts 326°
2026-05-05 20:25 52.36427 -0.96863 18023 ft 362 kts 327°
2026-05-05 20:25 52.38577 -0.99003 18027 ft 362 kts 326°
2026-05-05 20:25 52.40724 -1.01138 18033 ft 361 kts 327°
2026-05-05 20:26 52.42869 -1.03280 18039 ft 361 kts 326°
2026-05-05 20:26 52.45005 -1.05422 18041 ft 360 kts 326°
2026-05-05 20:26 52.47142 -1.07574 18044 ft 359 kts 326°
2026-05-05 20:26 52.49270 -1.09716 18044 ft 359 kts 326°
2026-05-05 20:27 52.51392 -1.11856 18041 ft 359 kts 326°
2026-05-05 20:27 52.53519 -1.13999 18048 ft 358 kts 326°
2026-05-05 20:27 52.55647 -1.16143 18048 ft 358 kts 326°
2026-05-05 20:27 52.57762 -1.18278 18049 ft 358 kts 326°
2026-05-05 20:28 52.59885 -1.20419 18053 ft 357 kts 326°
2026-05-05 20:28 52.62006 -1.22558 18052 ft 357 kts 326°
2026-05-05 20:28 52.64119 -1.24693 18050 ft 357 kts 326°
2026-05-05 20:28 52.66237 -1.26839 18047 ft 357 kts 326°
2026-05-05 20:29 52.68351 -1.28985 18043 ft 357 kts 326°
2026-05-05 20:29 52.70470 -1.31140 18042 ft 357 kts 326°
2026-05-05 20:29 52.72585 -1.33291 18043 ft 357 kts 326°
2026-05-05 20:29 52.74695 -1.35438 18070 ft 357 kts 326°
2026-05-05 20:30 52.76809 -1.37590 18083 ft 357 kts 326°
2026-05-05 20:30 52.78924 -1.39745 18081 ft 356 kts 326°
2026-05-05 20:30 52.81032 -1.41895 18081 ft 356 kts 326°
2026-05-05 20:30 52.83140 -1.44052 18079 ft 356 kts 326°
2026-05-05 20:31 52.85240 -1.46205 18077 ft 355 kts 326°
2026-05-05 20:31 52.87342 -1.48363 18074 ft 355 kts 326°
2026-05-05 20:31 52.89440 -1.50517 18070 ft 355 kts 326°
2026-05-05 20:31 52.91538 -1.52671 17560 ft 356 kts 326°
2026-05-05 20:32 52.93627 -1.54823 16889 ft 358 kts 326°
2026-05-05 20:32 52.95737 -1.57005 16318 ft 355 kts 326°
2026-05-05 20:32 52.97819 -1.59157 15803 ft 351 kts 326°
2026-05-05 20:32 52.99911 -1.61320 15241 ft 349 kts 326°
2026-05-05 20:33 53.01930 -1.63412 14738 ft 345 kts 326°
2026-05-05 20:33 53.03956 -1.65510 14215 ft 342 kts 327°
2026-05-05 20:33 53.05817 -1.67904 13707 ft 337 kts 314°
2026-05-05 20:33 53.07366 -1.70809 13121 ft 334 kts 310°
2026-05-05 20:34 53.08873 -1.73734 12566 ft 331 kts 310°
2026-05-05 20:34 53.10368 -1.76626 12015 ft 327 kts 310°
2026-05-05 20:34 53.11845 -1.79484 11539 ft 323 kts 311°
2026-05-05 20:34 53.13304 -1.82306 11036 ft 320 kts 311°
2026-05-05 20:35 53.14741 -1.85096 10700 ft 312 kts 311°
2026-05-05 20:35 53.16121 -1.87783 10576 ft 299 kts 311°
2026-05-05 20:35 53.17443 -1.90362 10452 ft 287 kts 311°
2026-05-05 20:35 53.18723 -1.92866 10226 ft 280 kts 311°
2026-05-05 20:36 53.19966 -1.95295 9900 ft 278 kts 311°
2026-05-05 20:36 53.21215 -1.97736 9617 ft 273 kts 311°
2026-05-05 20:36 53.22429 -2.00107 9480 ft 264 kts 311°
2026-05-05 20:36 53.23603 -2.02402 9304 ft 258 kts 311°
2026-05-05 20:37 53.24697 -2.04769 8825 ft 262 kts 298°
2026-05-05 20:37 53.25132 -2.07737 8311 ft 269 kts 274°
2026-05-05 20:37 53.25135 -2.10873 7927 ft 270 kts 270°
2026-05-05 20:37 53.25110 -2.14011 7558 ft 270 kts 270°
2026-05-05 20:38 53.25082 -2.17128 7240 ft 268 kts 270°
2026-05-05 20:38 53.25054 -2.20202 7071 ft 259 kts 270°
2026-05-05 20:38 53.25034 -2.23137 6943 ft 246 kts 270°
2026-05-05 20:38 53.25006 -2.25929 6817 ft 234 kts 270°
2026-05-05 20:39 53.24884 -2.28570 6617 ft 225 kts 255°
2026-05-05 20:39 53.24304 -2.30979 6234 ft 223 kts 246°
2026-05-05 20:39 53.23647 -2.33319 5789 ft 223 kts 245°
2026-05-05 20:39 53.22982 -2.35655 5353 ft 223 kts 245°
2026-05-05 20:40 53.22324 -2.38005 4970 ft 224 kts 245°
2026-05-05 20:40 53.21682 -2.40362 4442 ft 228 kts 245°
2026-05-05 20:40 53.21037 -2.42770 4088 ft 225 kts 246°
2026-05-05 20:40 53.20791 -2.45223 3933 ft 208 kts 281°
2026-05-05 20:41 53.21386 -2.47271 3692 ft 194 kts 315°
2026-05-05 20:41 53.22470 -2.48496 3504 ft 187 kts 343°
2026-05-05 20:41 53.23742 -2.48832 3393 ft 182 kts
2026-05-05 20:41 53.24946 -2.48294 3260 ft 179 kts 29°
2026-05-05 20:42 53.25897 -2.47023 3064 ft 175 kts 51°
2026-05-05 20:42 53.26652 -2.45471 2849 ft 170 kts 52°
2026-05-05 20:42 53.27395 -2.43943 2621 ft 168 kts 52°
2026-05-05 20:42 53.28115 -2.42462 2397 ft 158 kts 52°
2026-05-05 20:43 53.28773 -2.41109 2192 ft 147 kts 52°
2026-05-05 20:43 53.29412 -2.39795 1985 ft 142 kts 52°
2026-05-05 20:43 53.30029 -2.38526 1799 ft 140 kts 53°
2026-05-05 20:43 53.30633 -2.37281 1601 ft 140 kts 52°
2026-05-05 20:44 53.31239 -2.36034 1408 ft 134 kts 51°
2026-05-05 20:44 53.31816 -2.34843 1216 ft 130 kts 51°
2026-05-05 20:44 53.32382 -2.33677 1023 ft 128 kts 51°
2026-05-05 20:44 53.32942 -2.32522 838 ft 127 kts 51°
2026-05-05 20:45 53.34061 -2.30214 489 ft 127 kts 51°
2026-05-05 20:45 53.34615 -2.29071 324 ft 126 kts 51°
2026-05-05 20:45 53.35141 -2.27979 234 ft 107 kts 51°
2026-05-05 20:46 53.35473 -2.27289 249 ft 53 kts 51°
2026-05-05 20:46 53.35591 -2.27088 256 ft 14 kts
2026-05-05 20:46 53.35679 -2.27160 256 ft 12 kts 321°
2026-05-05 20:46 53.35695 -2.27181 255 ft 0 kts 321°
2026-05-05 20:47 53.35699 -2.27187 255 ft 3 kts 321°
2026-05-05 20:47 53.35727 -2.27225 255 ft 7 kts 321°
2026-05-05 20:47 53.35769 -2.27291 255 ft 10 kts 303°
2026-05-05 20:47 53.35749 -2.27402 255 ft 12 kts 230°
2026-05-05 20:48 53.35690 -2.27522 250 ft 13 kts 232°
2026-05-05 20:48 53.35721 -2.27633 248 ft 13 kts 338°
2026-05-05 20:48 53.35799 -2.27708 251 ft 14 kts 311°
2026-05-05 20:48 53.35867 -2.27831 254 ft 15 kts 323°
2026-05-05 20:49 53.35956 -2.27861 255 ft 14 kts 338°
2026-05-05 20:49 53.36043 -2.27975 255 ft 17 kts 319°
2026-05-05 20:49 53.36137 -2.28118 255 ft 18 kts 315°
2026-05-05 20:49 53.36217 -2.28256 255 ft 18 kts 314°
2026-05-05 20:50 53.36308 -2.28409 255 ft 17 kts 315°
2026-05-05 20:50 53.36362 -2.28472 255 ft 15 kts 345°
2026-05-05 20:50 53.36488 -2.28604 255 ft 18 kts 316°
2026-05-05 20:50 53.36553 -2.28713 255 ft 11 kts 311°
2026-05-05 20:51 53.36599 -2.28835 255 ft 10 kts 302°
2026-05-05 20:51 53.36613 -2.28862 255 ft 1 kts 314°
2026-05-05 20:51 53.36617 -2.28869 255 ft 3 kts 314°
2026-05-05 20:51 53.36645 -2.28893 255 ft 6 kts 346°
2026-05-05 20:52 53.36688 -2.28944 255 ft 9 kts 315°
2026-05-05 20:52 53.36740 -2.29029 255 ft 12 kts 320°
2026-05-05 20:52 53.36815 -2.29014 255 ft 12 kts 23°
2026-05-05 20:52 53.36864 -2.28944 255 ft 7 kts 45°
2026-05-05 20:53 53.36900 -2.28883 255 ft 8 kts 45°
2026-05-05 20:53 53.36917 -2.28837 255 ft 5 kts 97°
2026-05-05 20:53 53.36897 -2.28797 255 ft 4 kts 134°
2026-05-05 20:53 53.36891 -2.28788 255 ft 1 kts 136°
2026-05-05 20:54 53.36891 -2.28787 255 ft 0 kts 136°